Total_Precipitation_Accumulation
0.08 0.08 0.08 0.09 0.07 0.04 0.01 0.00 0.00 0.00 0.00 0.00 0.00 0.00 0.00 0.01 0.00 0.01 0.02 0.03 0.04 0.05 0.09 0.22 0.30 0.33 0.40 0.42 0.40 0.35 0.32 0.38 0.43 0.46 0.51 0.59 0.60 0.56 0.56 0.55 0.53 0.55 0.62 0.67 0.70 0.68 0.65 0.58 0.59
0.09 0.11 0.13 0.14 0.07 0.02 0.00 0.00 0.00 0.00 0.00 0.00 0.00 0.00 0.00 0.00 0.00 0.01 0.03 0.04 0.03 0.04 0.07 0.15 0.26 0.32 0.38 0.40 0.38 0.36 0.35 0.37 0.40 0.45 0.49 0.54 0.56 0.58 0.57 0.54 0.55 0.59 0.66 0.71 0.72 0.72 0.68 0.63 0.57
0.13 0.18 0.17 0.14 0.06 0.01 0.00 0.00 0.00 0.00 0.00 0.00 0.00 0.00 0.00 0.00 0.00 0.01 0.03 0.02 0.02 0.03 0.06 0.15 0.27 0.33 0.39 0.42 0.41 0.39 0.39 0.40 0.42 0.44 0.50 0.57 0.57 0.56 0.53 0.49 0.50 0.55 0.65 0.72 0.71 0.65 0.62 0.62 0.60
0.18 0.25 0.25 0.14 0.03 0.00 0.00 0.00 0.00 0.00 0.00 0.00 0.00 0.00 0.00 0.00 0.00 0.01 0.03 0.02 0.02 0.04 0.07 0.17 0.29 0.36 0.41 0.43 0.44 0.43 0.43 0.46 0.49 0.50 0.53 0.60 0.61 0.60 0.55 0.49 0.47 0.47 0.53 0.61 0.61 0.58 0.58 0.59 0.54
0.26 0.28 0.25 0.12 0.02 0.00 0.00 0.00 0.00 0.00 0.00 0.00 0.00 0.00 0.00 0.00 0.01 0.01 0.02 0.03 0.02 0.05 0.09 0.19 0.33 0.42 0.46 0.47 0.47 0.49 0.49 0.52 0.55 0.58 0.59 0.63 0.63 0.61 0.58 0.56 0.53 0.49 0.47 0.50 0.53 0.53 0.54 0.55 0.51
0.35 0.33 0.20 0.08 0.02 0.01 0.00 0.00 0.00 0.00 0.00 0.00 0.01 0.01 0.01 0.01 0.02 0.02 0.02 0.03 0.03 0.06 0.11 0.23 0.41 0.49 0.53 0.55 0.54 0.55 0.57 0.59 0.62 0.64 0.66 0.66 0.62 0.60 0.59 0.58 0.53 0.49 0.44 0.43 0.45 0.47 0.49 0.50 0.49
0.34 0.32 0.16 0.07 0.03 0.02 0.01 0.00 0.01 0.01 0.00 0.00 0.00 0.01 0.01 0.03 0.03 0.03 0.04 0.05 0.06 0.10 0.15 0.27 0.42 0.52 0.61 0.64 0.62 0.61 0.62 0.63 0.67 0.71 0.71 0.68 0.62 0.62 0.64 0.60 0.54 0.51 0.48 0.43 0.39 0.39 0.40 0.39 0.41
0.38 0.41 0.20 0.08 0.04 0.02 0.01 0.01 0.01 0.01 0.01 0.00 0.01 0.01 0.02 0.03 0.04 0.05 0.08 0.11 0.13 0.17 0.23 0.32 0.45 0.52 0.59 0.67 0.71 0.67 0.69 0.70 0.73 0.76 0.73 0.68 0.67 0.67 0.64 0.57 0.51 0.53 0.52 0.47 0.42 0.39 0.37 0.34 0.33
0.50 0.54 0.24 0.08 0.05 0.04 0.03 0.02 0.02 0.02 0.02 0.02 0.02 0.01 0.01 0.02 0.05 0.08 0.12 0.18 0.23 0.27 0.32 0.41 0.51 0.59 0.66 0.70 0.75 0.84 0.87 0.88 0.88 0.83 0.78 0.77 0.74 0.69 0.60 0.49 0.49 0.54 0.55 0.48 0.45 0.43 0.39 0.36 0.30
0.55 0.45 0.18 0.05 0.05 0.06 0.06 0.06 0.05 0.05 0.05 0.03 0.03 0.02 0.02 0.04 0.07 0.10 0.12 0.16 0.21 0.27 0.33 0.42 0.54 0.63 0.74 0.79 0.88 0.99 0.99 0.97 0.92 0.80 0.77 0.78 0.71 0.66 0.59 0.53 0.51 0.56 0.57 0.54 0.51 0.49 0.47 0.42 0.33
0.42 0.30 0.13 0.07 0.05 0.08 0.09 0.09 0.09 0.11 0.08 0.05 0.05 0.05 0.05 0.08 0.11 0.14 0.16 0.17 0.18 0.22 0.31 0.41 0.56 0.70 0.77 0.81 0.91 0.99 0.98 0.96 0.94 0.86 0.81 0.76 0.77 0.73 0.69 0.63 0.64 0.63 0.60 0.59 0.59 0.60 0.55 0.49 0.45
0.32 0.21 0.15 0.12 0.11 0.13 0.13 0.13 0.12 0.11 0.09 0.06 0.07 0.10 0.11 0.11 0.13 0.14 0.17 0.19 0.22 0.27 0.35 0.45 0.61 0.74 0.81 0.80 0.88 0.95 0.94 0.88 0.86 0.83 0.83 0.82 0.81 0.77 0.75 0.71 0.71 0.73 0.70 0.66 0.64 0.61 0.57 0.52 0.47
0.29 0.17 0.13 0.14 0.15 0.16 0.16 0.14 0.12 0.09 0.05 0.06 0.07 0.10 0.14 0.14 0.15 0.16 0.20 0.27 0.29 0.31 0.40 0.53 0.65 0.76 0.87 0.90 0.94 0.94 0.91 0.85 0.85 0.84 0.83 0.77 0.70 0.65 0.61 0.61 0.60 0.55 0.54 0.54 0.55 0.57 0.56 0.52 0.48
0.24 0.17 0.13 0.14 0.16 0.17 0.20 0.14 0.11 0.07 0.04 0.07 0.10 0.10 0.13 0.15 0.17 0.19 0.22 0.29 0.34 0.36 0.44 0.58 0.71 0.82 0.92 0.91 0.95 0.95 0.92 0.90 0.92 0.87 0.78 0.72 0.66 0.61 0.56 0.52 0.52 0.48 0.43 0.41 0.42 0.43 0.46 0.48 0.44
0.28 0.28 0.21 0.13 0.13 0.15 0.25 0.24 0.10 0.05 0.06 0.09 0.12 0.11 0.11 0.15 0.19 0.21 0.23 0.26 0.32 0.40 0.52 0.62 0.75 0.92 1.01 0.98 1.00 1.02 1.00 0.96 0.92 0.91 0.86 0.77 0.68 0.64 0.62 0.56 0.52 0.49 0.47 0.47 0.45 0.45 0.44 0.42 0.41
0.43 0.48 0.37 0.15 0.12 0.16 0.34 0.31 0.09 0.06 0.10 0.13 0.13 0.13 0.13 0.14 0.20 0.25 0.30 0.33 0.38 0.49 0.61 0.71 0.84 0.99 1.09 1.11 1.10 1.08 1.05 1.04 0.97 0.92 0.92 0.89 0.78 0.68 0.64 0.60 0.56 0.56 0.56 0.57 0.55 0.49 0.47 0.44 0.40
0.60 0.52 0.31 0.15 0.11 0.20 0.34 0.27 0.09 0.08 0.12 0.13 0.14 0.15 0.15 0.15 0.20 0.27 0.32 0.37 0.42 0.53 0.64 0.77 0.88 1.01 1.15 1.23 1.22 1.21 1.13 1.10 1.07 1.01 0.94 0.92 0.89 0.77 0.67 0.63 0.63 0.65 0.69 0.67 0.63 0.58 0.51 0.47 0.44
0.53 0.35 0.22 0.15 0.13 0.20 0.26 0.18 0.09 0.11 0.13 0.12 0.14 0.16 0.16 0.18 0.21 0.28 0.34 0.41 0.49 0.56 0.67 0.81 0.95 1.10 1.24 1.41 1.44 1.43 1.35 1.22 1.17 1.11 0.98 0.89 0.89 0.85 0.78 0.71 0.70 0.73 0.74 0.73 0.70 0.63 0.58 0.54 0.52
0.36 0.34 0.24 0.14 0.12 0.23 0.23 0.15 0.11 0.12 0.14 0.14 0.15 0.18 0.19 0.19 0.24 0.31 0.40 0.49 0.57 0.62 0.68 0.78 0.93 1.08 1.25 1.38 1.46 1.41 1.37 1.25 1.21 1.17 1.09 0.97 0.92 0.93 0.89 0.78 0.75 0.72 0.73 0.70 0.68 0.68 0.67 0.63 0.62
0.40 0.43 0.32 0.20 0.14 0.24 0.24 0.16 0.11 0.12 0.15 0.16 0.16 0.20 0.22 0.19 0.23 0.28 0.38 0.51 0.58 0.63 0.66 0.73 0.88 0.99 1.15 1.29 1.34 1.40 1.35 1.29 1.23 1.19 1.14 1.05 0.95 0.99 1.02 0.90 0.81 0.77 0.73 0.74 0.75 0.72 0.73 0.73 0.68
0.47 0.41 0.32 0.29 0.25 0.27 0.31 0.24 0.11 0.10 0.11 0.14 0.15 0.17 0.20 0.21 0.22 0.25 0.34 0.46 0.57 0.62 0.68 0.74 0.81 0.93 1.06 1.29 1.50 1.62 1.67 1.54 1.39 1.27 1.15 1.02 0.95 0.92 1.01 1.03 0.92 0.84 0.78 0.73 0.71 0.70 0.69 0.71 0.66
0.52 0.28 0.28 0.34 0.53 0.53 0.42 0.46 0.14 0.09 0.09 0.11 0.13 0.13 0.15 0.19 0.19 0.21 0.29 0.40 0.50 0.60 0.72 0.80 0.78 0.89 1.06 1.24 1.49 1.63 1.68 1.55 1.31 1.18 1.15 1.09 1.00 0.95 0.92 0.99 0.99 0.94 0.89 0.81 0.72 0.69 0.68 0.73 0.76
0.42 0.28 0.32 0.40 0.64 0.73 0.49 0.53 0.20 0.11 0.12 0.10 0.11 0.12 0.12 0.16 0.17 0.18 0.24 0.33 0.42 0.59 0.72 0.82 0.86 0.93 1.06 1.19 1.37 1.59 1.69 1.59 1.45 1.33 1.23 1.14 1.10 1.05 0.97 0.94 0.97 0.96 0.93 0.91 0.83 0.75 0.74 0.76 0.79
0.38 0.45 0.54 0.65 1.05 1.31 0.48 0.44 0.28 0.17 0.19 0.15 0.12 0.12 0.12 0.15 0.18 0.17 0.22 0.29 0.38 0.55 0.65 0.81 0.92 0.96 1.08 1.15 1.28 1.44 1.63 1.71 1.64 1.52 1.41 1.26 1.18 1.10 1.08 0.98 0.98 0.98 0.95 0.94 0.91 0.83 0.79 0.79 0.78
0.66 1.12 1.70 1.89 1.93 1.16 0.25 0.30 0.30 0.18 0.15 0.18 0.18 0.15 0.13 0.14 0.17 0.18 0.21 0.26 0.32 0.51 0.62 0.75 0.92 0.93 1.02 1.09 1.18 1.32 1.50 1.67 1.76 1.65 1.47 1.36 1.33 1.22 1.11 1.06 0.98 0.98 0.96 0.94 0.93 0.92 0.87 0.80 0.82
0.70 1.02 1.39 1.29 0.83 0.35 0.18 0.27 0.25 0.16 0.12 0.11 0.12 0.13 0.13 0.14 0.16 0.18 0.20 0.23 0.28 0.38 0.51 0.65 0.85 0.88 0.90 0.99 1.07 1.23 1.42 1.60 1.71 1.73 1.56 1.43 1.34 1.24 1.13 1.08 1.00 0.94 0.96 0.97 0.93 0.90 0.88 0.85 0.80
0.68 0.75 0.68 0.92 0.66 0.40 0.28 0.23 0.19 0.11 0.08 0.07 0.08 0.09 0.12 0.15 0.15 0.16 0.20 0.22 0.27 0.33 0.44 0.58 0.80 0.88 0.82 0.89 0.98 1.10 1.25 1.47 1.58 1.63 1.62 1.50 1.43 1.35 1.26 1.17 1.12 1.03 1.00 0.99 0.97 0.92 0.86 0.87 0.87
0.54 0.67 0.78 1.22 1.11 0.64 0.36 0.22 0.25 0.17 0.12 0.10 0.10 0.10 0.11 0.13 0.14 0.15 0.18 0.20 0.24 0.29 0.40 0.54 0.71 0.88 0.87 0.86 0.92 1.00 1.07 1.26 1.43 1.56 1.66 1.54 1.48 1.45 1.46 1.37 1.30 1.21 1.16 1.12 1.07 1.01 0.91 0.89 0.89
0.64 0.83 1.05 1.09 0.87 0.69 0.50 0.37 0.32 0.24 0.20 0.16 0.13 0.11 0.11 0.12 0.14 0.14 0.16 0.18 0.21 0.25 0.33 0.50 0.63 0.79 0.93 0.94 0.92 1.00 1.06 1.18 1.30 1.35 1.44 1.51 1.51 1.47 1.53 1.56 1.49 1.41 1.31 1.27 1.24 1.17 1.09 1.03 0.95
0.68 0.79 0.91 1.11 0.86 0.49 0.49 0.44 0.29 0.20 0.18 0.18 0.15 0.11 0.10 0.11 0.13 0.14 0.15 0.16 0.19 0.22 0.28 0.40 0.57 0.71 0.84 0.93 0.97 1.00 1.07 1.19 1.25 1.25 1.24 1.28 1.39 1.42 1.46 1.63 1.66 1.60 1.49 1.39 1.40 1.40 1.31 1.25 1.16